Вернуться в каталог

TSAT-1A

АктивенНаукаVLEO
NORAD 59442·PAYLOAD·🇮🇳 India

Запущен Apr 7, 2024 с Cape Canaveral Space Force Station

Loading…

Ближайшие Пролёты (ближайшие 24 часа)

TLE

СвежийSource: Space-Track

Эпоха: Sep 14, 2026, 15:47 UTC

1 59442U 24066A   26257.65764443  .00010480  00000-0  30953-3 0  9999
2 59442  45.6171 351.9682 0012170 264.4733  95.4774 15.35174725135526

Отслеживайте TSAT-1A в реальном времени с AllMySat

Download on the App Store